[[{"header":{"parameterUnit":"m.s-1","parameterCategory":1,"la1":30.2991,"la2":30.254,"lo1":-89.0895,"lo2":-89.0444,"dy":0.0017,"dx":0.0017,"nx":28,"ny":28,"refTime":"2025-09-05T03:00:00:Z","depth":0,"parameterNumber":2,"parameterNumberName":"U-component_of_WINDS"},"data":[0,0,0,0,0,0,0,0,0,0,0,0,0,0,0,0,0,0,0,0,0,0,0,0,0,0,0,0,0,0,0,0,0,0,0,0,0,0,0,0,0,0,0,0,0,0,0,0,0,0,0,0,0,0,0,0,0,0,-1.5666,-1.5665,0,-1.5643,-1.5642,-1.5642,-1.5603,-1.5602,-1.5601,-1.56,-1.5576,-1.5576,-1.5576,0,0,0,0,0,0,0,0,0,0,0,0,0,-1.5676,-1.5676,-1.5666,-1.5665,-1.5665,-1.5643,-1.5642,-1.5642,-1.5603,-1.5602,-1.5601,-1.56,-1.5576,-1.5576,-1.5576,0,0,0,0,0,0,0,0,0,0,0,0,0,-1.5664,-1.5676,-1.5666,-1.5643,-1.5641,-1.5643,-1.5642,-1.5642,-1.5603,-1.5602,-1.5601,-1.56,-1.5576,-1.5576,-1.5576,-1.5599,0,0,-1.5576,-1.5576,0,0,0,0,0,0,0,0,-1.5665,-1.5664,-1.5646,-1.5644,-1.5642,-1.5624,-1.5637,-1.5628,-1.5603,-1.5617,-1.56,-1.5599,-1.5593,-1.5592,-1.559,-1.5598,-1.5597,-1.5576,-1.5576,-1.5577,-1.5577,0,0,0,0,0,0,0,-1.5666,-1.5665,-1.5657,-1.5646,-1.5643,-1.5634,-1.5631,-1.5635,-1.5612,-1.5616,-1.5613,-1.5611,-1.5592,-1.559,-1.5589,-1.5596,-1.5576,-1.5576,-1.5577,-1.5577,-1.5623,-1.5624,0,0,0,0,0,0,-1.567,-1.5666,-1.5657,-1.5656,-1.5651,-1.5635,-1.5631,-1.5631,-1.5611,-1.5607,-1.5612,-1.5609,-1.559,-1.5589,-1.5588,-1.5613,-1.5577,-1.5577,-1.5577,-1.5622,-1.5623,-1.5624,0,0,0,0,0,0,-1.567,-1.567,-1.5658,-1.566,-1.5658,-1.5636,-1.5636,-1.5631,-1.5629,-1.5608,-1.5604,-1.5614,-1.5589,-1.5588,-1.5597,-1.5612,-1.5577,-1.5577,-1.562,-1.5622,-1.5624,-1.5664,0,0,0,0,0,0,-1.5671,-1.567,-1.5678,-1.566,-1.5658,-1.5667,-1.5637,-1.5632,-1.563,-1.5626,-1.5609,-1.5606,-1.5588,-1.5597,-1.5597,-1.5611,-1.5577,-1.5619,-1.5621,-1.5623,-1.5661,-1.5667,-1.5672,0,0,0,0,0,-1.5671,-1.569,-1.5679,-1.5678,-1.5668,-1.5668,-1.5667,-1.5647,-1.5631,-1.5639,-1.5626,-1.5606,-1.5611,-1.5598,-1.5598,-1.5612,-1.5618,-1.562,-1.5623,-1.5659,-1.5666,-1.5672,0,0,0,0,0,0,-1.5709,-1.5687,-1.5674,-1.5688,-1.568,-1.5662,-1.5671,-1.5655,-1.5651,-1.5647,-1.5623,-1.5619,-1.5631,-1.5623,-1.5609,-1.5634,-1.5611,-1.5614,-1.5639,-1.5645,-1.5651,-1.5652,-1.5577,0,0,0,0,0,-1.572,-1.5722,-1.5703,-1.5716,-1.5713,-1.5693,-1.5693,-1.5678,-1.5669,-1.5665,-1.5653,-1.5645,-1.5644,-1.5645,-1.5643,-1.5661,-1.5657,-1.5671,-1.5676,-1.5681,-1.5683,-1.5692,-1.5699,-1.5633,-1.5633,-1.5633,0,0,-1.574,-1.5728,-1.5731,-1.5724,-1.5716,-1.5719,-1.569,-1.5695,-1.5697,-1.5666,-1.5673,-1.5665,-1.5654,-1.5668,-1.5673,-1.5661,-1.5701,-1.5684,-1.5688,-1.5688,-1.5696,-1.5702,-1.5708,-1.5635,-1.5635,-1.5634,0,0,-1.5779,-1.577,-1.5781,-1.5774,-1.5764,-1.575,-1.5753,-1.5737,-1.573,-1.5738,-1.5715,-1.5718,-1.5717,-1.5711,-1.5708,-1.5747,-1.5729,-1.5747,-1.5774,-1.5784,-1.5789,-1.5793,-1.5807,-1.5813,-1.575,-1.575,-1.575,0,-1.5805,-1.5809,-1.5789,-1.5795,-1.5792,-1.5766,-1.5777,-1.5771,-1.5761,-1.576,-1.5747,-1.5747,-1.5738,-1.575,-1.576,-1.5758,-1.5761,-1.5748,-1.579,-1.5794,-1.5798,-1.5811,-1.5816,-1.5752,-1.5752,-1.5752,-1.5751,0,-1.5842,-1.5846,-1.5856,-1.5847,-1.5846,-1.5855,-1.5836,-1.5837,-1.5824,-1.5812,-1.5821,-1.5809,-1.5805,-1.5807,-1.5794,-1.5818,-1.5811,-1.5795,-1.5771,-1.5807,-1.5819,-1.5823,-1.5755,-1.5755,-1.5754,-1.5753,0,0,-1.5902,-1.5883,-1.5887,-1.5883,-1.587,-1.5873,-1.5881,-1.5878,-1.5879,-1.5874,-1.588,-1.5881,-1.5867,-1.5863,-1.5849,-1.5857,-1.5889,-1.584,-1.5839,-1.5849,-1.5916,-1.5927,-1.5933,-1.5878,-1.5879,-1.5879,-1.5916,0,-1.5938,-1.595,-1.5933,-1.5949,-1.5952,-1.5928,-1.5935,-1.5928,-1.5918,-1.5919,-1.5908,-1.591,-1.589,-1.5888,-1.5896,-1.5884,-1.5902,-1.5881,-1.5883,-1.5883,-1.5885,-1.5939,-1.5951,-1.5987,-1.5921,-1.5922,-1.5922,0,-1.598,-1.5977,-1.5994,-1.5981,-1.5982,-1.5988,-1.5985,-1.5986,-1.5979,-1.5971,-1.5968,-1.5952,-1.5959,-1.5938,-1.5948,-1.5934,-1.5934,-1.5929,-1.593,-1.5928,-1.5904,-1.5939,-1.5997,-1.6003,-1.5929,-1.5929,-1.5928,0,-1.6022,-1.6022,-1.6032,-1.603,-1.6015,-1.602,-1.6015,-1.6006,-1.6006,-1.6003,-1.6002,-1.6,-1.5999,-1.5998,-1.5982,-1.5968,-1.5994,-1.5971,-1.5988,-1.5988,-1.5993,-1.5993,-1.6052,-1.5995,-1.5995,-1.5995,-1.5995,0,-1.6062,-1.6073,-1.6051,-1.6057,-1.6069,-1.605,-1.6062,-1.6054,-1.6047,-1.6051,-1.6031,-1.6035,-1.6014,-1.6017,-1.6004,-1.6015,-1.6014,-1.6008,-1.6004,-1.6009,-1.601,-1.6008,-1.6005,-1.5996,-1.5996,-1.5996,-1.5995,0,-1.611,-1.6095,-1.6105,-1.6091,-1.6088,-1.6097,-1.6086,-1.6091,-1.6081,-1.6087,-1.6087,-1.6071,-1.6073,-1.6057,-1.6056,-1.6047,-1.6064,-1.6056,-1.6066,-1.6064,-1.6081,-1.6079,-1.614,-1.6147,-1.6087,-1.6087,-1.6088,0,-1.6136,-1.6144,-1.6132,-1.6134,-1.6129,-1.6132,-1.6132,-1.6114,-1.6115,-1.6108,-1.6114,-1.6115,-1.6114,-1.6119,-1.6107,-1.6106,-1.6098,-1.612,-1.6098,-1.6103,-1.6098,-1.6097,-1.6098,-1.6124,-1.6125,-1.6125,-1.6126,0,-1.6184,-1.6177,-1.6178,-1.6176,-1.6177,-1.6175,-1.6171,-1.6174,-1.6155,-1.6157,-1.6159,-1.6159,-1.6159,-1.616,-1.6157,-1.6152,-1.6136,-1.6133,-1.6137,-1.6141,-1.6147,-1.6144,-1.6078,-1.6131,-1.6131,-1.613,-1.613,-1.613,-1.6222,-1.6228,-1.6221,-1.6222,-1.6218,-1.6216,-1.6221,-1.6211,-1.6213,-1.6211,-1.6201,-1.6206,-1.6199,-1.6194,-1.6191,-1.6194,-1.6184,-1.6189,-1.619,-1.6192,-1.6195,-1.6147,-1.6193,-1.6193,-1.6193,-1.6193,-1.6193,0,-1.6268,-1.6263,-1.6265,-1.6261,-1.6263,-1.6249,-1.6245,-1.6247,-1.6251,-1.6247,-1.6247,-1.625,-1.6252,-1.6241,-1.6241,-1.6246,-1.6239,-1.6246,-1.6245,-1.6244,-1.6204,-1.62,-1.6252,-1.6252,-1.6252,-1.6252,-1.6252,-1.6252,-1.6293,-1.6303,-1.6295,-1.6304,-1.6298,-1.6302,-1.6301,-1.63,-1.6296,-1.6301,-1.6302,-1.6295,-1.6288,-1.6288,-1.6289,-1.6286,-1.6286,-1.6297,-1.6291,-1.6253,-1.6247,-1.6242,-1.6238,-1.6297,-1.6297,-1.6331,-1.6331,-1.6331]},{"header":{"parameterUnit":"m.s-1","parameterCategory":1,"la1":30.2991,"la2":30.254,"lo1":-89.0895,"lo2":-89.0444,"dy":0.0017,"dx":0.0017,"nx":28,"ny":28,"refTime":"2025-09-05T03:00:00:Z","depth":0,"parameterNumber":3,"parameterNumberName":"V-component_of_WINDS"},"data":[0,0,0,0,0,0,0,0,0,0,0,0,0,0,0,0,0,0,0,0,0,0,0,0,0,0,0,0,0,0,0,0,0,0,0,0,0,0,0,0,0,0,0,0,0,0,0,0,0,0,0,0,0,0,0,0,0,0,2.8185,2.8185,0,2.8174,2.8174,2.8173,2.8213,2.8214,2.8215,2.8216,2.8199,2.8197,2.8196,0,0,0,0,0,0,0,0,0,0,0,0,0,2.8235,2.8234,2.8185,2.8185,2.8185,2.8174,2.8174,2.8173,2.8212,2.8214,2.8215,2.8217,2.8199,2.8197,2.8195,0,0,0,0,0,0,0,0,0,0,0,0,0,2.8218,2.8234,2.8185,2.8203,2.8205,2.8174,2.8174,2.8173,2.8212,2.8214,2.8216,2.8217,2.82,2.8198,2.8195,2.8145,0,0,2.8188,2.8187,0,0,0,0,0,0,0,0,2.8219,2.8216,2.8201,2.8202,2.8203,2.8197,2.8185,2.8163,2.8212,2.8209,2.8216,2.8218,2.8196,2.8194,2.8188,2.8144,2.8143,2.8188,2.8186,2.8185,2.8185,0,0,0,0,0,0,0,2.822,2.8216,2.818,2.82,2.8202,2.821,2.8209,2.8181,2.8192,2.8209,2.8212,2.8211,2.8197,2.819,2.8188,2.8143,2.8188,2.8186,2.8184,2.8183,2.8056,2.8054,0,0,0,0,0,0,2.8219,2.8217,2.8181,2.818,2.8216,2.8208,2.8207,2.8197,2.8193,2.8194,2.8209,2.8213,2.8193,2.819,2.8187,2.8127,2.8185,2.8183,2.8182,2.8058,2.8055,2.8053,0,0,0,0,0,0,2.822,2.8216,2.8181,2.8199,2.8196,2.8205,2.8193,2.8196,2.8189,2.8193,2.8194,2.82,2.8195,2.8191,2.8155,2.8127,2.8182,2.818,2.806,2.8057,2.8054,2.8007,0,0,0,0,0,0,2.8222,2.8216,2.8198,2.8199,2.8195,2.8151,2.8191,2.8194,2.8185,2.8189,2.8185,2.8186,2.8196,2.8159,2.8153,2.8125,2.8178,2.8063,2.8059,2.8055,2.8011,2.8003,2.7996,0,0,0,0,0,2.8223,2.8184,2.8197,2.8192,2.8173,2.8149,2.8146,2.816,2.8183,2.8164,2.8167,2.8186,2.8132,2.8155,2.8149,2.8119,2.8064,2.806,2.8056,2.8014,2.8004,2.7996,0,0,0,0,0,0,2.8177,2.8184,2.8199,2.8159,2.8153,2.8156,2.8132,2.8149,2.8136,2.814,2.8156,2.8155,2.8116,2.8114,2.814,2.807,2.8102,2.8096,2.8072,2.8063,2.8055,2.8056,2.8176,0,0,0,0,0,2.8163,2.8145,2.8152,2.8116,2.8112,2.8123,2.8113,2.8125,2.8119,2.8116,2.8116,2.8108,2.8089,2.8076,2.8059,2.8012,2.801,2.7988,2.7981,2.7974,2.7969,2.7942,2.7932,2.8039,2.8039,2.8039,0,0,2.8132,2.8134,2.8121,2.8106,2.8103,2.8083,2.812,2.8097,2.8081,2.8112,2.8078,2.8078,2.807,2.8028,2.801,2.8026,2.7939,2.7969,2.7964,2.7961,2.7937,2.7927,2.7918,2.8036,2.8036,2.8037,0,0,2.8066,2.8066,2.8036,2.8032,2.8028,2.8036,2.8028,2.8029,2.803,2.7998,2.802,2.8001,2.7968,2.7961,2.7954,2.7885,2.7902,2.7879,2.7838,2.7812,2.7804,2.7797,2.7771,2.7762,2.7874,2.7873,2.7873,0,2.8027,2.7999,2.8017,2.7993,2.7985,2.8014,2.7983,2.7978,2.7967,2.796,2.7979,2.7939,2.7935,2.7892,2.7876,2.7869,2.7859,2.7879,2.7804,2.7797,2.779,2.7766,2.7756,2.7871,2.7871,2.7871,2.7871,0,2.7951,2.7931,2.7907,2.7899,2.7888,2.786,2.7873,2.786,2.7872,2.7877,2.7843,2.784,2.7823,2.7814,2.7825,2.7772,2.7781,2.7802,2.7834,2.7777,2.7754,2.7745,2.7867,2.7868,2.7868,2.7869,0,0,2.7854,2.7857,2.7848,2.7844,2.7842,2.7826,2.7798,2.7784,2.7771,2.7763,2.774,2.7712,2.7731,2.7722,2.7733,2.771,2.7655,2.7733,2.7733,2.7718,2.7594,2.7578,2.7567,2.7667,2.7665,2.7664,2.7595,0,2.7788,2.7743,2.7759,2.7713,2.7694,2.7721,2.7697,2.7692,2.7696,2.7679,2.7683,2.7663,2.769,2.7685,2.7664,2.7666,2.763,2.7672,2.7643,2.7641,2.7643,2.7555,2.7538,2.7473,2.7586,2.7584,2.7583,0,2.7704,2.7695,2.7647,2.7648,2.7641,2.7619,2.7606,2.7591,2.7585,2.7589,2.758,2.7596,2.7567,2.7601,2.7561,2.7588,2.7578,2.7577,2.7575,2.7571,2.7608,2.7548,2.7453,2.7442,2.757,2.7571,2.7572,0,2.7636,2.7612,2.758,2.7576,2.7577,2.7561,2.756,2.7557,2.7547,2.7535,2.7528,2.7513,2.7504,2.7491,2.7501,2.7525,2.7459,2.7493,2.746,2.746,2.7444,2.7444,2.7344,2.7439,2.7439,2.744,2.744,0,2.756,2.7529,2.7549,2.7529,2.7495,2.7514,2.7479,2.7481,2.7478,2.7458,2.748,2.746,2.7476,2.7457,2.7465,2.743,2.7426,2.7427,2.7429,2.7424,2.7424,2.7416,2.7421,2.7437,2.7437,2.7438,2.7438,0,2.7477,2.749,2.7457,2.7462,2.7462,2.7436,2.7439,2.742,2.7426,2.74,2.7395,2.7404,2.7383,2.7393,2.737,2.7375,2.733,2.7338,2.7332,2.7333,2.7299,2.7302,2.7189,2.7175,2.7281,2.728,2.7279,0,2.7427,2.7404,2.7407,2.7396,2.7394,2.7376,2.7367,2.7384,2.7372,2.7365,2.7346,2.7327,2.7313,2.7277,2.728,2.7263,2.7271,2.7232,2.7268,2.7263,2.7268,2.7269,2.7266,2.7225,2.7223,2.7222,2.7222,0,2.7336,2.7343,2.733,2.7318,2.7306,2.7298,2.729,2.728,2.7296,2.7282,2.7262,2.7251,2.7229,2.7209,2.7194,2.7191,2.7208,2.7211,2.7202,2.7196,2.7192,2.7193,2.7311,2.7213,2.7214,2.7214,2.7215,2.7215,2.7267,2.7248,2.7247,2.7231,2.7228,2.722,2.7203,2.7208,2.7192,2.7176,2.7187,2.7162,2.7157,2.7139,2.7134,2.7114,2.7128,2.7116,2.7112,2.7109,2.7104,2.7197,2.7111,2.7111,2.7111,2.7112,2.7112,0,2.7176,2.7177,2.7162,2.7152,2.7139,2.7159,2.7152,2.7139,2.7118,2.7113,2.7099,2.7075,2.7056,2.7059,2.7041,2.7024,2.7032,2.7019,2.702,2.7018,2.7092,2.7101,2.7013,2.7013,2.7014,2.7014,2.7014,2.7014,2.7127,2.7095,2.7103,2.707,2.7071,2.7049,2.7043,2.7036,2.7032,2.7005,2.699,2.6993,2.699,2.6972,2.6955,2.6956,2.6948,2.6932,2.6936,2.7004,2.7013,2.7023,2.7031,2.693,2.693,2.6864,2.6863,2.6863]}]]